This is the latest recevied weather packets stored in our database for station/object K5MGY. If no packets are shown the sender has not sent any weather packets the latest 10 day(s).
| Time | Temp. | Humidity | Pressure | Rain* | Wind** | Luminosity | Snow |
|---|---|---|---|---|---|---|---|
| 1778113511 | 15.56° C | 83% | 1038.5 hPa | 0 mm | - | 16 W/m² | - |
| 1778113207 | 15.56° C | 82% | 1038.5 hPa | 0 mm | - | 20 W/m² | - |
| 1778112903 | 15.56° C | 82% | 1038.5 hPa | 0 mm | - | 21 W/m² | - |
| 1778112601 | 15.56° C | 82% | 1038.3 hPa | 0 mm | - | 24 W/m² | - |
| 1778112297 | 15.56° C | 83% | 1038.3 hPa | 0 mm | - | 24 W/m² | - |
| 1778111992 | 15.56° C | 83% | 1038.3 hPa | 0 mm | - | 33 W/m² | - |
| 1778111690 | 15.56° C | 84% | 1038.3 hPa | 0 mm | - | 33 W/m² | - |
| 1778111386 | 15.56° C | 84% | 1038.2 hPa | 0 mm | - | 39 W/m² | - |
| 1778111083 | 15.56° C | 85% | 1038.3 hPa | 0 mm | - | 38 W/m² | - |
| 1778110781 | 15.56° C | 86% | 1038.1 hPa | 0 mm | - | 48 W/m² | - |
| 1778110477 | 15.56° C | 86% | 1037.7 hPa | 0 mm | - | 54 W/m² | - |
| 1778110174 | 15.56° C | 86% | 1038.1 hPa | 0 mm | - | 54 W/m² | - |
| 1778109870 | 15.56° C | 85% | 1037.9 hPa | 1.78 mm | - | 52 W/m² | - |
| 1778109566 | 15.56° C | 83% | 1037.9 hPa | 3.05 mm | - | 53 W/m² | - |
| 1778109263 | 16.11° C | 81% | 1038.2 hPa | 1.27 mm | - | 27 W/m² | - |
| 1778108961 | 16.11° C | 79% | 1038 hPa | 0 mm | - | 23 W/m² | - |
| 1778108657 | 16.67° C | 79% | 1038.1 hPa | 0 mm | - | 24 W/m² | - |
| 1778108353 | 16.67° C | 78% | 1037.7 hPa | 0 mm | - | 47 W/m² | - |
| 1778108051 | 16.67° C | 77% | 1037.5 hPa | 0 mm | - | 47 W/m² | - |
| 1778107748 | 16.67° C | 76% | 1037.9 hPa | 0 mm | - | 54 W/m² | - |
| 1778107445 | 16.67° C | 74% | 1038.2 hPa | 0 mm | - | 54 W/m² | - |
| 1778107141 | 16.67° C | 72% | 1038.1 hPa | 0 mm | - | 53 W/m² | - |
| 1778106836 | 16.67° C | 72% | 1038.1 hPa | 0 mm | - | 36 W/m² | - |
| 1778106534 | 17.22° C | 72% | 1037.7 hPa | 0 mm | - | 47 W/m² | - |
| 1778106230 | 17.22° C | 71% | 1037.5 hPa | 0 mm | - | 58 W/m² | - |
* Rain latest hour (hover to see other rain measurements)
** Current wind speed in m/s (hover to see current wind gust speed)